Weather History for Kinloss, United Kingdom

Change the Weather History Date:

Sunday, September 9, 2012

  Actual Average Record
Temperature  
Mean Temperature 56 °F -  
Max Temperature 65 °F 58 °F 71 °F (2004)
Min Temperature 48 °F 46 °F 39 °F (2004)
Degree Days  
Heating Degree Days 8    
Growing Degree Days 6 (Base 50)    
Moisture  
Dew Point 51 °F    
Average Humidity 67    
Maximum Humidity 82    
Minimum Humidity 50    
Precipitation  
Precipitation 0.00 in 0.08 in - ()
Sea Level Pressure  
Sea Level Pressure 29.56 in    
Wind  
Wind Speed 7 mph ()    
Max Wind Speed 15 mph    
Max Gust Speed 23 mph    
Visibility 7.0 miles    
Events Rain    
Averages and records for this station are not official NWS values.
T = Trace of Precipitation, MM = Missing Value Source: Averaged Metar Reports

Daily Weather History Graph

Daily Weather History Graph

Search for Another Location

Airport:

Trip Planner

Search our weather history database for the weather conditions in past years. The results will help you decide how hot, cold, wet, or windy it might be!

Date:

Astronomy

Sep. 09, 2012 Rise Set
Actual Time 6:32 AM BST 7:49 PM BST
Civil Twilight 5:52 AM BST 8:28 PM BST
Nautical Twilight 5:02 AM BST 9:18 PM BST
Astronomical Twilight 4:06 AM BST 10:13 PM BST
Moon 11:44 PM BST (9/9) 4:21 PM BST (9/9)
Length of Visible Light 14h 36m
Length of Day
13h 16m
Last Quarter, 41% of the Moon is Illuminated
Sep 9
Last Quarter
Sep 16
New
Sep 22
First Quarter
Sep 30
Full
Oct 8
Last Quarter

Hourly Weather History & Observations

Time (BST) Temp. Dew Point Humidity Pressure Visibility Wind Dir Wind Speed Gust Speed Precip Events Conditions
12:50 AM 58 °F 49 °F 62% 29.82 in 31 mi SSW 6.9 mph - -   Scattered Clouds
12:50 AM 59.0 °F 48.2 °F 67% 29.80 in 6.2 mi SSW 6.9 mph - N/A   Mostly Cloudy
1:50 AM 59.0 °F 50.0 °F 72% 29.77 in 6.2 mi South 9.2 mph - N/A   Mostly Cloudy
2:50 AM 57.2 °F 50.0 °F 77% 29.74 in 6.2 mi SSE 8.1 mph - N/A   Overcast
3:50 AM 52 °F 47 °F 76% 29.75 in 25 mi West 3.5 mph - -   Scattered Clouds
3:50 AM 51.8 °F 46.4 °F 82% 29.74 in 6.2 mi West 3.5 mph - N/A   Scattered Clouds
6:50 AM 55 °F 49 °F 76% 29.69 in 22 mi South 5.8 mph - -  
6:50 AM 55.4 °F 50.0 °F 82% 29.68 in 6.2 mi South 5.8 mph - N/A   Unknown
7:50 AM 57.2 °F 50.0 °F 77% 29.65 in 6.2 mi South 10.4 mph - N/A   Unknown
8:50 AM 59.0 °F 50.0 °F 72% 29.65 in 6.2 mi South 10.4 mph - N/A   Partly Cloudy
9:50 AM 62 °F 48 °F 50% 29.64 in 22 mi South 8.1 mph - -   Partly Cloudy
9:50 AM 62.6 °F 48.2 °F 59% 29.62 in 6.2 mi South 8.1 mph - N/A   Scattered Clouds
10:50 AM 62.6 °F 50.0 °F 63% 29.59 in 6.2 mi South 6.9 mph - N/A   Unknown
11:50 AM 62.6 °F 48.2 °F 59% 29.56 in 6.2 mi SSW 11.5 mph - N/A   Scattered Clouds
12:50 PM 64 °F 50 °F 50% 29.56 in 22 mi South 6.9 mph - -   Partly Cloudy
12:50 PM 64.4 °F 50.0 °F 59% 29.53 in 6.2 mi South 6.9 mph - N/A   Scattered Clouds
1:50 PM 64.4 °F 48.2 °F 56% 29.53 in 6.2 mi WSW 2.3 mph - N/A   Mostly Cloudy
2:50 PM 64.4 °F 50.0 °F 59% 29.50 in 6.2 mi SSW 8.1 mph - N/A   Mostly Cloudy
3:50 PM 65 °F 52 °F 52% 29.49 in 17 mi SSW 10.4 mph - -   Partly Cloudy
3:50 PM 64.4 °F 51.8 °F 64% 29.47 in 6.2 mi SSW 10.4 mph - N/A   Scattered Clouds
4:50 PM 64.4 °F 51.8 °F 64% 29.44 in 6.2 mi WSW 10.4 mph - N/A   Mostly Cloudy
5:50 PM 64.4 °F 51.8 °F 64% 29.42 in 6.2 mi South 11.5 mph 23.0 mph N/A   Partly Cloudy
6:50 PM 63 °F 53 °F 60% 29.42 in 15 mi South 12.7 mph - - Rain Rain
6:50 PM 62.6 °F 53.6 °F 72% 29.42 in 6.2 mi South 12.7 mph - N/A   Partly Cloudy
7:50 PM 62.6 °F 53.6 °F 72% 29.39 in 6.2 mi SSW 11.5 mph - N/A   Mostly Cloudy
8:50 PM 60.8 °F 53.6 °F 77% 29.39 in 6.2 mi South 5.8 mph - N/A   Mostly Cloudy
9:50 PM 63 °F 54 °F 64% 29.38 in 25 mi SSW 11.5 mph - -   Scattered Clouds
9:50 PM 62.6 °F 53.6 °F 72% 29.36 in 6.2 mi SSW 11.5 mph - N/A   Overcast
10:50 PM 62.6 °F 53.6 °F 72% 29.36 in 6.2 mi SSW 15.0 mph - N/A   Mostly Cloudy
11:50 PM 60.8 °F 53.6 °F 77% 29.36 in 6.2 mi SSW 12.7 mph - N/A   Partly Cloudy